Other Surface Observations
Issued by NWS

Current Version |  Previous Version |  Text Only |  Print | Product List |  Glossary On
Versions: 1 2 3 4 5 6 7 8 9 10 11 12 13 14 15 16 17 18 19 20 21 22 23 24 25 26 27 28 29 30 31 32 33 34 35 36 37 38 39 40 41 42 43 44 45 46 47 48 49 50
152
SXUS52 KTAE 250602
OSOTAE
OSOTAE
North Florida/South Alabama/Southwest Georgia Weather Roundup
National Weather Service Tallahassee Florida
200 AM EDT SAT MAY 25 2024

Note: "fair" indicates few or no clouds below 12,000 feet with no
significant weather and/or obstructions to visibility.

!FLZ017-115-028-034-025-250700
...North Florida...

CITY           SKY/WX    TMP DP  RH WIND       PRES   REMARKS
TALL INTL ARPT PTCLDY    75  70  84 CALM      29.93S
FSU LOVE BLDG  NOT AVBL
APALACHICOLA   CLEAR     78  73  84 SW6       29.92F
PERRY          NOT AVBL
CROSS CITY     CLEAR     66  66 100 CALM      29.94S
JACKSONVILLE   PTCLDY    74  67  78 CALM      29.91F
$$

!FLZ112-006-005-002-011-250700
...Florida Panhandle...

CITY           SKY/WX    TMP DP  RH WIND       PRES   REMARKS
MARIANNA       PTCLDY    74  73  97 S6        29.91F
BONIFAY        NOT AVBL
PANAMA CITY NW MOCLDY    76  74  93 CALM      29.92S
TYNDALL AFB    CLEAR     78  73  85 SW7       29.91F
TYND DRONE APT CLEAR     78  75  90 SW6       29.87F
DE FUNIAK SPR  PTCLDY    73  73  97 S3        29.93S FOG
EGLIN AFB      MOCLDY    80  76  86 S9        29.90F
DESTIN         PTCLDY    80  76  87 S8        29.91S
HURLBURT       PTCLDY    81  74  79 SW9       29.90S
CRESTVIEW      PTCLDY    74  72  93 CALM      29.92S FOG
PENSACOLA      PTCLDY    79  72  79 SW10      29.91R
$$

!ALZ063-066-250700
...South Alabama...

CITY           SKY/WX    TMP DP  RH WIND       PRES   REMARKS
DOTHAN         PTCLDY    76  73  91 SW9       29.96R
OZARK CAIRNS   PTCLDY    76  73  91 S5        29.91S
FT RUCKER HELI MOCLDY    75  73  94 S3        29.91
RUCKER HELI 3  NOT AVBL
RUCKER HELI 2  MOCLDY    75  73  93 CALM      29.89R
FLORALA APT    PTCLDY    75  72  90 CALM      29.94R
ANDALUSIA      PTCLDY    73  71  93 E3        29.91S
TROY           MOCLDY    71  69  93 S3        29.92S
EUFALA         MOCLDY    75  69  81 SW5       29.92S
MOBILE         MOCLDY    78  74  87 SE6       29.90F
$$

!GAZ120>161-250700
...Southwest and South Central Georgia...

CITY           SKY/WX    TMP DP  RH WIND       PRES   REMARKS
THOMASVILLE    PTCLDY    72  70  94 CALM      29.94S
BAINBRIDGE     PTCLDY    75  72  92 SW6       29.93S
MOODY AFB      PTCLDY    76  70  81 W6        29.90F
VALDOSTA       PTCLDY    73  69  87 CALM      29.92F
MOULTRIE       PTCLDY    74  73  96 W3        29.93F
BLAKELY        PTCLDY    70  68  94 CALM      29.93S
ALBANY         PTCLDY    74  68  81 SW5       29.93S
TIFTON         PTCLDY    74  71  88 SW3       29.93F
FITZGERALD     PTCLDY    73  69  87 CALM      29.92F
CORDELE        MOCLDY    70  67  92 CALM      29.93S
AMERICUS       MOCLDY    70  70 100 CALM      29.90S
HOMERVILLE     CLEAR     74  67  78 CALM      29.92F
$$

!GMZ750-755-770-775-250700
...Coastal and Buoy Obs...

STATION/POSITION TIME  TEMP    WIND        PRES    VSBY  WAVE
                       AIR SEA DIR/SP/G                  HT/PER
                 (UTC) (F)     (DEG/KT/KT) (MB)    (MI)  (FT/S)
KEATON BEACH     NOT AVBL
CEDAR KEY        NOT AVBL
C TOWER          0500   79                 1014.1F
APALACHICOLA BUO 0550   79     270/  4/  4 1013.9S         1/ 4
PANAMA CITY BUOY NOT AVBL
MOBILE BUOY      0540   81     180/ 12/ 14 1013.8R
ORANGE BCH AL BU 0540   81 80  190/ 14/ 16 1013.1R
$$